RH
100 100 89 73 38 20 14 15 17 18 17 15 18 22 21 20 19 18 18 18 18 18 19 20 22 22 22
58 74 100 89 82 30 18 14 17 17 17 16 17 20 22 20 20 19 18 18 19 18 20 20 22 23 24
72 79 100 98 99 84 38 19 18 17 19 18 17 19 22 19 20 20 20 19 19 19 20 20 22 24 25
87 78 90 100 100 98 77 33 21 19 18 18 18 19 22 20 19 20 20 20 20 19 20 21 22 24 26
98 81 97 99 95 99 99 68 29 24 19 17 17 18 18 19 17 18 19 20 21 20 20 21 23 24 27
100 89 89 100 99 98 99 98 88 52 23 18 17 18 17 17 16 18 18 21 21 20 21 21 23 24 27
100 97 99 98 99 97 98 99 88 74 43 23 18 17 17 19 18 18 19 22 21 21 21 21 23 24 26
89 100 99 100 100 93 97 97 99 88 86 63 21 15 16 18 19 20 20 22 21 21 20 22 23 24 26
89 100 96 99 100 100 100 98 93 85 89 73 33 17 18 18 20 21 21 21 21 21 20 22 23 24 26
100 100 96 100 100 100 100 99 98 96 80 68 34 19 22 16 20 20 23 21 20 21 20 21 23 25 26
100 100 100 99 100 99 100 99 100 94 72 56 42 35 33 17 16 19 22 20 21 21 21 21 23 25 26
99 99 99 96 86 93 100 100 100 100 82 65 43 37 39 18 16 20 20 20 21 21 22 23 23 25 26
98 99 92 87 82 93 100 100 100 100 87 97 64 38 27 17 20 24 24 20 21 22 22 23 23 26 28
99 98 100 100 100 99 100 92 100 100 80 85 73 41 21 17 17 22 23 20 20 21 23 24 22 23 27
99 99 98 99 99 100 99 100 98 98 77 80 62 36 25 22 20 18 20 18 18 21 22 22 21 23 26
98 98 98 99 100 98 100 95 100 96 75 80 73 45 25 22 20 19 20 21 20 21 23 21 21 23 26
99 99 98 99 100 100 99 99 100 95 81 80 85 82 38 22 20 20 20 22 22 22 21 22 23 26 28
Wind_Speed
44 44 44 42 42 40 40 40 39 37 36 33 31 28 27 24 21 20 17 15 12 11 11 11 13 14 16
43 37 49 46 43 42 42 42 40 38 38 35 33 30 28 29 23 21 20 17 15 12 12 12 13 14 15
55 41 42 44 49 45 41 39 41 43 41 38 36 32 32 30 26 23 22 19 17 14 14 13 13 14 15
51 49 52 50 52 49 46 40 43 44 43 41 40 35 35 32 28 25 25 22 19 17 15 14 14 14 15
57 49 60 57 58 55 48 40 44 43 46 44 43 39 37 34 33 28 27 25 21 19 16 16 14 15 15
69 60 61 53 55 55 51 49 55 47 46 43 45 42 38 35 32 27 27 26 23 22 18 18 16 16 16
60 66 62 61 50 56 56 51 49 41 41 44 44 40 36 35 32 29 29 28 26 23 20 20 18 17 17
70 69 66 71 62 54 51 42 38 43 45 42 39 39 39 36 34 32 31 29 28 25 22 21 19 18 18
77 77 70 54 61 52 54 49 54 48 42 39 39 41 39 37 36 35 34 30 30 28 24 22 20 19 20
76 77 66 52 57 48 51 58 55 46 44 41 41 44 43 39 38 40 36 32 32 30 26 23 22 20 20
73 74 68 65 59 53 48 58 52 47 39 37 41 41 43 40 40 42 36 34 33 32 28 24 23 22 21
66 70 72 69 62 62 52 59 52 41 38 35 40 40 38 40 42 40 37 34 34 32 29 27 25 25 23
69 75 73 66 64 70 55 59 52 46 45 43 39 34 38 43 39 36 38 37 36 34 31 29 25 24 25
70 76 77 68 64 60 57 58 55 52 50 49 39 37 39 46 45 40 40 39 36 35 32 31 28 26 25
70 70 77 76 64 58 55 52 58 54 56 53 42 39 41 42 43 41 41 39 37 36 33 31 28 26 25
60 65 77 77 71 66 61 65 61 60 57 51 39 38 41 44 41 38 37 37 36 33 34 31 27 26 26
61 69 78 78 71 67 64 66 58 56 56 51 42 38 40 41 39 34 35 33 33 32 31 28 26 27 27
Wind_Direction
230 218 222 221 224 221 221 221 222 222 226 226 226 227 232 235 237 244 250 259 267 285 301 315 323 335 339
233 230 219 223 229 228 224 221 222 225 227 228 228 227 231 236 238 242 250 256 265 277 290 303 315 325 334
228 225 235 221 230 230 230 226 223 225 227 228 229 227 230 236 237 241 248 253 259 268 281 294 305 315 326
227 226 226 234 230 234 228 225 226 226 228 228 232 228 229 234 237 239 246 250 256 263 272 284 296 307 319
220 220 220 216 223 229 232 226 227 228 231 229 233 229 230 230 236 235 244 249 253 259 268 277 288 300 310
217 222 221 223 223 226 231 228 224 225 229 231 234 234 233 233 238 237 243 248 250 256 263 272 281 290 303
223 224 225 218 228 220 229 231 225 229 233 232 235 237 236 236 237 236 239 244 248 251 259 267 276 285 294
220 222 230 230 228 229 229 228 230 229 232 232 231 234 235 235 235 234 236 240 246 249 253 262 270 279 287
218 219 224 221 218 223 222 215 223 225 230 228 222 230 233 233 234 235 236 238 244 247 249 255 263 271 281
210 216 220 213 217 229 222 215 221 222 223 226 225 229 228 225 229 232 233 235 242 246 248 252 257 264 273
205 216 219 213 218 228 223 212 224 226 224 230 234 231 231 226 229 232 231 234 239 245 248 250 256 261 267
203 207 222 215 220 217 220 213 220 218 223 232 238 235 231 228 228 231 231 234 238 243 245 247 250 256 263
208 218 218 216 213 217 220 219 218 211 208 222 231 228 221 225 227 228 229 231 236 240 243 246 248 251 257
200 205 215 213 216 214 217 209 214 206 209 219 222 222 221 221 223 221 223 228 233 236 238 242 245 248 252
195 197 212 208 208 208 208 211 208 207 212 218 217 217 221 223 225 224 224 229 232 234 236 241 244 246 248
191 194 211 209 206 206 213 219 214 206 213 219 217 218 220 225 225 224 222 225 230 231 234 237 242 245 248
189 193 210 210 208 206 209 210 208 207 215 221 218 221 223 227 227 222 225 226 230 231 233 236 240 243 246